Weather History for PAGY - September, 2011

Change the Weather History Date:

Monday, September 5, 2011

  Actual Average Record
Temperature  
Mean Temperature 50 °F -  
Max Temperature 52 °F 56 °F 73 °F (1986)
Min Temperature 48 °F 45 °F 38 °F (1965)
Degree Days  
Heating Degree Days 15    
Moisture  
Dew Point 47 °F    
Average Humidity 91    
Maximum Humidity 100    
Minimum Humidity 77    
Precipitation  
Precipitation 0.83 in - - ()
Sea Level Pressure  
Sea Level Pressure 29.50 in    
Wind  
Wind Speed 5 mph (South)    
Max Wind Speed 16 mph    
Max Gust Speed 24 mph    
Visibility 8 miles    
Events Rain    
Averages and records for this station are not official NWS values.
T = Trace of Precipitation, MM = Missing Value Source: NWS Daily Summary

Daily Weather History Graph

Daily Weather History Graph

Search for Another Location

Airport or City:

Trip Planner

Search our weather history database for the weather conditions in past years. The results will help you decide how hot, cold, wet, or windy it might be!

Date:

Astronomy

Sep. 05, 2011 Rise Set
Actual Time 6:06 AM AKDT 7:51 PM AKDT
Civil Twilight 5:23 AM AKDT 8:34 PM AKDT
Nautical Twilight 4:28 AM AKDT 9:29 PM AKDT
Astronomical Twilight 3:21 AM AKDT 10:34 PM AKDT
Moon 5:01 PM AKDT (9/5) 11:15 PM AKDT (9/5)
Length of Visible Light 15h 11m
Length of Day
13h 45m
Waxing Gibbous, 62% of the Moon is Illuminated
Sep 5
Waxing Gibbous
Sep 12
Full
Sep 20
Last Quarter
Sep 27
New
Oct 3
First Quarter

Hourly Weather History & Observations

Time (AKDT) Temp. Dew Point Humidity Pressure Visibility Wind Dir Wind Speed Gust Speed Precip Events Conditions
12:53 AM 52.0 °F 45.0 °F 77% 29.63 in 10.0 mi South 13.8 mph 21.9 mph 0.00 in Rain Light Rain
1:53 AM 52.0 °F 45.0 °F 77% 29.63 in 10.0 mi SSW 16.1 mph 24.2 mph 0.00 in   Overcast
2:53 AM 52.0 °F 45.0 °F 77% 29.63 in 10.0 mi SSE 8.1 mph - N/A   Overcast
3:53 AM 50.0 °F 46.0 °F 86% 29.62 in 10.0 mi ENE 10.4 mph - 0.00 in   Overcast
4:53 AM 50.0 °F 46.0 °F 86% 29.61 in 10.0 mi East 6.9 mph - N/A   Overcast
5:53 AM 50.0 °F 46.0 °F 86% 29.60 in 10.0 mi NNE 4.6 mph - 0.00 in   Overcast
6:53 AM 48.9 °F 46.0 °F 90% 29.60 in 10.0 mi Calm Calm - N/A   Overcast
7:53 AM 48.9 °F 46.0 °F 90% 29.60 in 10.0 mi Calm Calm - 0.00 in   Overcast
8:53 AM 48.9 °F 46.9 °F 93% 29.60 in 10.0 mi Calm Calm - N/A   Overcast
9:00 AM 48.2 °F 46.4 °F 93% 29.60 in 10.0 mi Calm Calm - N/A   Overcast
9:53 AM 50.0 °F 46.0 °F 86% 29.60 in 10.0 mi Calm Calm - 0.00 in   Overcast
10:13 AM 50.0 °F 46.4 °F 87% 29.59 in 10.0 mi Calm Calm - N/A   Overcast
10:37 AM 50.0 °F 46.4 °F 87% 29.59 in 10.0 mi Calm Calm - N/A   Overcast
10:53 AM 50.0 °F 46.0 °F 86% 29.58 in 10.0 mi Calm Calm - N/A   Overcast
11:21 AM 48.2 °F 44.6 °F 87% 29.57 in 10.0 mi SW 3.5 mph - N/A   Overcast
11:53 AM 48.9 °F 45.0 °F 86% 29.58 in 10.0 mi Calm Calm - N/A   Overcast
12:53 PM 50.0 °F 46.9 °F 89% 29.56 in 10.0 mi SW 3.5 mph - 0.00 in   Mostly Cloudy
1:53 PM 50.0 °F 46.9 °F 89% 29.54 in 10.0 mi SSW 3.5 mph - 0.00 in   Overcast
2:53 PM 50.0 °F 46.9 °F 89% 29.52 in 10.0 mi SW 4.6 mph - N/A   Overcast
3:53 PM 50.0 °F 46.9 °F 89% 29.50 in 10.0 mi SSW 6.9 mph - 0.00 in Rain Light Rain
4:53 PM 48.9 °F 46.9 °F 93% 29.48 in 5.0 mi Calm Calm - 0.03 in Rain Light Rain
5:53 PM 48.9 °F 46.9 °F 93% 29.44 in 4.0 mi Calm Calm - 0.06 in Rain Light Rain
6:02 PM 50.0 °F 48.2 °F 94% 29.44 in 5.0 mi Calm Calm - 0.01 in Rain Light Rain
6:53 PM 48.9 °F 48.0 °F 97% 29.41 in 3.0 mi Calm Calm - 0.11 in Rain Rain
7:53 PM 48.9 °F 48.0 °F 97% 29.38 in 4.0 mi Calm Calm - 0.16 in Rain Rain
8:08 PM 48.2 °F 48.2 °F 100% 29.36 in 4.0 mi Calm Calm - 0.03 in Rain Rain
8:28 PM 48.2 °F 48.2 °F 100% 29.36 in 6.0 mi Calm Calm - 0.06 in Rain Light Rain
8:50 PM 48.2 °F 48.2 °F 100% 29.34 in 4.0 mi Calm Calm - 0.10 in Rain Rain
8:53 PM 48.9 °F 48.0 °F 97% 29.35 in 4.0 mi Calm Calm - 0.11 in Rain Rain
9:53 PM 48.0 °F 48.0 °F 100% 29.31 in 4.0 mi Calm Calm - 0.12 in Rain Rain
10:53 PM 48.0 °F 48.0 °F 100% 29.29 in 5.0 mi Calm Calm - 0.14 in Rain Rain
11:28 PM 48.2 °F 48.2 °F 100% 29.28 in 7.0 mi Calm Calm - 0.05 in Rain Light Rain
11:53 PM 48.0 °F 46.9 °F 96% 29.29 in 6.0 mi Calm Calm - 0.10 in Rain Light Rain